Location: Hochstatterhof
(48.7256°N, 10.3487°E)
Time: 21:05:25
(UTC+00:00)

USA 215 - Pass Details

Date: 26 September 2023
Orbit: 1098 x 1109 km, 123.0° (Epoch: 06 December)

Event Time Altitude Azimuth Distance (km) Brightness Sun altitude
Rises 01:40:20 0° 124° (SE) 3,903 6.3 -32.5°
Reaches altitude 10° 01:42:48 10° 125° (SE) 2,949 5.6 -32.2°
Enters shadow 01:48:22 68° 136° (SE) 1,180 3.3 -31.5°
